Time,TemperatureF,DewpointF,PressureIn,WindDirection,WindDirectionDegrees,WindSpeedMPH,WindSpeedGustMPH,Humidity,HourlyPrecipIn,Conditions,Clouds,dailyrainin,SoftwareType,DateUTC
2013-02-12 00:00:00,41.8,38.0,29.76,East,101,0.0,-999.0,85,-99.99,,,0.00,weatherlink.com 1.10,2013-02-12 00:00:00,
2013-02-12 00:15:00,41.9,38.0,29.77,East,101,0.0,-999.0,85,-99.99,,,0.00,weatherlink.com 1.10,2013-02-12 00:15:00,
2013-02-12 00:30:00,41.9,38.0,29.77,East,101,0.0,-999.0,85,-99.99,,,0.00,weatherlink.com 1.10,2013-02-12 00:30:00,
2013-02-12 00:45:00,41.8,38.0,29.78,East,101,0.0,-999.0,85,-99.99,,,0.00,weatherlink.com 1.10,2013-02-12 00:45:00,
2013-02-12 01:01:00,41.9,38.0,29.78,East,101,0.0,-999.0,85,-99.99,,,0.00,weatherlink.com 1.10,2013-02-12 01:01:00,
2013-02-12 01:15:00,41.9,38.0,29.78,East,101,0.0,-999.0,85,-99.99,,,0.00,weatherlink.com 1.10,2013-02-12 01:15:00,
2013-02-12 01:30:00,41.7,38.0,29.78,East,101,0.0,-999.0,85,-99.99,,,0.00,weatherlink.com 1.10,2013-02-12 01:30:00,
2013-02-12 01:46:00,41.4,37.0,29.79,East,100,2.0,-999.0,85,-99.99,,,0.00,weatherlink.com 1.10,2013-02-12 01:46:00,
2013-02-12 02:01:00,40.9,37.0,29.80,East,99,2.0,-999.0,85,-99.99,,,0.00,weatherlink.com 1.10,2013-02-12 02:01:00,
2013-02-12 02:16:00,40.8,37.0,29.80,East,99,3.0,-999.0,85,-99.99,,,0.00,weatherlink.com 1.10,2013-02-12 02:16:00,
2013-02-12 02:31:00,40.8,37.0,29.80,East,98,3.0,-999.0,85,-99.99,,,0.00,weatherlink.com 1.10,2013-02-12 02:31:00,
2013-02-12 02:46:00,40.7,37.0,29.80,East,98,3.0,-999.0,85,-99.99,,,0.00,weatherlink.com 1.10,2013-02-12 02:46:00,
2013-02-12 03:01:00,40.6,37.0,29.81,East,85,2.0,-999.0,85,-99.99,,,0.00,weatherlink.com 1.10,2013-02-12 03:01:00,
2013-02-12 03:16:00,40.5,36.0,29.82,East,81,3.0,-999.0,85,-99.99,,,0.00,weatherlink.com 1.10,2013-02-12 03:16:00,
2013-02-12 03:31:00,40.4,36.0,29.82,East,81,1.0,-999.0,85,-99.99,,,0.00,weatherlink.com 1.10,2013-02-12 03:31:00,
2013-02-12 03:46:00,40.3,36.0,29.82,East,81,3.0,-999.0,85,-99.99,,,0.00,weatherlink.com 1.10,2013-02-12 03:46:00,
2013-02-12 04:01:00,40.1,36.0,29.82,East,81,1.0,-999.0,85,-99.99,,,0.00,weatherlink.com 1.10,2013-02-12 04:01:00,
2013-02-12 04:16:00,39.9,36.0,29.83,East,81,2.0,-999.0,85,-99.99,,,0.00,weatherlink.com 1.10,2013-02-12 04:16:00,
2013-02-12 04:31:00,39.7,36.0,29.83,East,81,3.0,-999.0,85,-99.99,,,0.00,weatherlink.com 1.10,2013-02-12 04:31:00,
2013-02-12 04:45:00,39.5,35.0,29.83,East,81,0.0,-999.0,84,-99.99,,,0.00,weatherlink.com 1.10,2013-02-12 04:45:00,
2013-02-12 05:01:00,39.4,35.0,29.83,East,81,0.0,-999.0,84,-99.99,,,0.00,weatherlink.com 1.10,2013-02-12 05:01:00,
2013-02-12 05:16:00,39.3,35.0,29.83,East,81,0.0,-999.0,84,-99.99,,,0.00,weatherlink.com 1.10,2013-02-12 05:16:00,
2013-02-12 05:31:00,39.2,35.0,29.84,East,81,0.0,-999.0,84,-99.99,,,0.00,weatherlink.com 1.10,2013-02-12 05:31:00,
2013-02-12 05:46:00,39.1,35.0,29.85,East,81,0.0,-999.0,84,-99.99,,,0.00,weatherlink.com 1.10,2013-02-12 05:46:00,
2013-02-12 06:01:00,39.1,35.0,29.86,East,81,0.0,-999.0,84,-99.99,,,0.00,weatherlink.com 1.10,2013-02-12 06:01:00,
2013-02-12 06:16:00,39.2,35.0,29.86,East,81,1.0,-999.0,84,-99.99,,,0.00,weatherlink.com 1.10,2013-02-12 06:16:00,
2013-02-12 06:31:00,39.1,35.0,29.87,East,81,0.0,-999.0,84,-99.99,,,0.00,weatherlink.com 1.10,2013-02-12 06:31:00,
2013-02-12 06:46:00,39.2,35.0,29.87,East,81,0.0,-999.0,84,-99.99,,,0.00,weatherlink.com 1.10,2013-02-12 06:46:00,
2013-02-12 07:01:00,39.4,35.0,29.88,East,81,0.0,-999.0,83,-99.99,,,0.00,weatherlink.com 1.10,2013-02-12 07:01:00,
2013-02-12 07:16:00,39.2,35.0,29.88,East,81,0.0,-999.0,83,-99.99,,,0.00,weatherlink.com 1.10,2013-02-12 07:16:00,
2013-02-12 07:31:00,39.2,35.0,29.88,East,81,0.0,-999.0,83,-99.99,,,0.00,weatherlink.com 1.10,2013-02-12 07:31:00,
2013-02-12 07:46:00,39.5,35.0,29.89,East,81,0.0,-999.0,83,-99.99,,,0.00,weatherlink.com 1.10,2013-02-12 07:46:00,
2013-02-12 08:01:00,39.3,35.0,29.90,East,81,0.0,-999.0,83,-99.99,,,0.00,weatherlink.com 1.10,2013-02-12 08:01:00,
2013-02-12 08:16:00,39.7,35.0,29.90,East,81,0.0,-999.0,83,-99.99,,,0.00,weatherlink.com 1.10,2013-02-12 08:16:00,
2013-02-12 08:31:00,39.7,35.0,29.91,East,81,0.0,-999.0,83,-99.99,,,0.00,weatherlink.com 1.10,2013-02-12 08:31:00,
2013-02-12 08:45:00,39.3,35.0,29.91,East,81,0.0,-999.0,83,-99.99,,,0.00,weatherlink.com 1.10,2013-02-12 08:45:00,
2013-02-12 09:01:00,39.3,35.0,29.92,East,81,2.0,-999.0,83,-99.99,,,0.00,weatherlink.com 1.10,2013-02-12 09:01:00,
2013-02-12 09:16:00,39.5,34.0,29.92,East,81,0.0,-999.0,82,-99.99,,,0.00,weatherlink.com 1.10,2013-02-12 09:16:00,
2013-02-12 09:31:00,39.5,34.0,29.93,East,81,0.0,-999.0,82,-99.99,,,0.00,weatherlink.com 1.10,2013-02-12 09:31:00,
2013-02-12 09:46:00,39.5,34.0,29.93,East,81,4.0,-999.0,82,-99.99,,,0.00,weatherlink.com 1.10,2013-02-12 09:46:00,
2013-02-12 10:01:00,39.6,34.0,29.93,East,81,0.0,-999.0,81,-99.99,,,0.00,weatherlink.com 1.10,2013-02-12 10:01:00,
2013-02-12 10:16:00,40.2,35.0,29.94,East,81,0.0,-999.0,81,-99.99,,,0.00,weatherlink.com 1.10,2013-02-12 10:16:00,
2013-02-12 10:31:00,40.5,35.0,29.94,East,81,0.0,-999.0,80,-99.99,,,0.00,weatherlink.com 1.10,2013-02-12 10:31:00,
2013-02-12 10:45:00,41.1,37.0,29.94,East,81,0.0,-999.0,84,-99.99,,,0.00,weatherlink.com 1.10,2013-02-12 10:45:00,
2013-02-12 11:01:00,41.5,35.0,29.95,East,81,0.0,-999.0,78,-99.99,,,0.00,weatherlink.com 1.10,2013-02-12 11:01:00,
2013-02-12 11:16:00,42.3,36.0,29.95,East,81,1.0,-999.0,78,-99.99,,,0.00,weatherlink.com 1.10,2013-02-12 11:16:00,
2013-02-12 11:31:00,42.6,37.0,29.95,East,91,7.0,-999.0,79,-99.99,,,0.00,weatherlink.com 1.10,2013-02-12 11:31:00,
2013-02-12 11:46:00,42.1,36.0,29.95,East,93,1.0,-999.0,78,-99.99,,,0.00,weatherlink.com 1.10,2013-02-12 11:46:00,
2013-02-12 12:01:00,42.8,36.0,29.95,East,93,4.0,-999.0,78,-99.99,,,0.00,weatherlink.com 1.10,2013-02-12 12:01:00,
2013-02-12 12:16:00,42.6,36.0,29.95,East,93,3.0,-999.0,78,-99.99,,,0.00,weatherlink.com 1.10,2013-02-12 12:16:00,
2013-02-12 12:31:00,42.7,36.0,29.96,East,93,0.0,-999.0,78,-99.99,,,0.00,weatherlink.com 1.10,2013-02-12 12:31:00,
2013-02-12 12:45:00,42.6,36.0,29.96,East,93,0.0,-999.0,78,-99.99,,,0.00,weatherlink.com 1.10,2013-02-12 12:45:00,
2013-02-12 13:01:00,42.6,36.0,29.96,East,93,2.0,-999.0,78,-99.99,,,0.00,weatherlink.com 1.10,2013-02-12 13:01:00,
2013-02-12 13:16:00,42.8,36.0,29.96,East,93,0.0,-999.0,78,-99.99,,,0.00,weatherlink.com 1.10,2013-02-12 13:16:00,
2013-02-12 13:31:00,42.7,36.0,29.96,East,93,4.0,-999.0,77,-99.99,,,0.00,weatherlink.com 1.10,2013-02-12 13:31:00,
2013-02-12 13:46:00,42.6,36.0,29.97,East,93,0.0,-999.0,78,-99.99,,,0.00,weatherlink.com 1.10,2013-02-12 13:46:00,
2013-02-12 14:01:00,42.7,36.0,29.96,East,93,2.0,-999.0,77,-99.99,,,0.00,weatherlink.com 1.10,2013-02-12 14:01:00,
2013-02-12 14:16:00,42.6,36.0,29.97,East,93,3.0,-999.0,77,-99.99,,,0.00,weatherlink.com 1.10,2013-02-12 14:16:00,
2013-02-12 14:31:00,42.5,36.0,29.97,East,93,0.0,-999.0,77,-99.99,,,0.00,weatherlink.com 1.10,2013-02-12 14:31:00,
2013-02-12 14:46:00,42.7,36.0,29.96,East,93,4.0,-999.0,78,-99.99,,,0.01,weatherlink.com 1.10,2013-02-12 14:46:00,
2013-02-12 15:01:00,42.6,36.0,29.97,East,93,0.0,-999.0,77,-99.99,,,0.01,weatherlink.com 1.10,2013-02-12 15:01:00,
2013-02-12 15:16:00,42.8,36.0,29.97,East,93,0.0,-999.0,78,-99.99,,,0.01,weatherlink.com 1.10,2013-02-12 15:16:00,
2013-02-12 15:31:00,42.8,36.0,29.97,East,93,0.0,-999.0,77,-99.99,,,0.01,weatherlink.com 1.10,2013-02-12 15:31:00,
2013-02-12 15:46:00,42.8,36.0,29.97,East,93,0.0,-999.0,78,-99.99,,,0.01,weatherlink.com 1.10,2013-02-12 15:46:00,
2013-02-12 16:01:00,42.8,36.0,29.97,East,93,1.0,-999.0,78,-99.99,,,0.01,weatherlink.com 1.10,2013-02-12 16:01:00,
2013-02-12 16:16:00,42.9,36.0,29.97,East,93,2.0,-999.0,78,-99.99,,,0.01,weatherlink.com 1.10,2013-02-12 16:16:00,
2013-02-12 16:30:00,42.9,36.0,29.97,East,93,2.0,-999.0,78,-99.99,,,0.01,weatherlink.com 1.10,2013-02-12 16:30:00,
2013-02-12 16:45:00,42.9,37.0,29.97,East,93,1.0,-999.0,79,-99.99,,,0.01,weatherlink.com 1.10,2013-02-12 16:45:00,
2013-02-12 17:00:00,43.0,37.0,29.97,East,93,0.0,-999.0,79,-99.99,,,0.01,weatherlink.com 1.10,2013-02-12 17:00:00,
2013-02-12 17:15:00,42.9,37.0,29.98,East,93,0.0,-999.0,79,-99.99,,,0.01,weatherlink.com 1.10,2013-02-12 17:15:00,
2013-02-12 17:30:00,42.9,37.0,29.98,East,93,0.0,-999.0,79,-99.99,,,0.01,weatherlink.com 1.10,2013-02-12 17:30:00,
2013-02-12 17:45:00,42.9,37.0,29.98,East,93,0.0,-999.0,80,-99.99,,,0.01,weatherlink.com 1.10,2013-02-12 17:45:00,
2013-02-12 18:15:00,42.9,37.0,29.99,East,93,2.0,-999.0,80,-99.99,,,0.01,weatherlink.com 1.10,2013-02-12 18:15:00,
2013-02-12 18:30:00,42.8,37.0,30.00,East,93,0.0,-999.0,80,-99.99,,,0.01,weatherlink.com 1.10,2013-02-12 18:30:00,
2013-02-12 18:45:00,42.8,37.0,30.00,East,93,2.0,-999.0,80,-99.99,,,0.01,weatherlink.com 1.10,2013-02-12 18:45:00,
2013-02-12 19:00:00,42.8,37.0,30.00,East,94,2.0,-999.0,80,-99.99,,,0.01,weatherlink.com 1.10,2013-02-12 19:00:00,
2013-02-12 19:15:00,42.8,37.0,30.01,East,94,1.0,-999.0,80,-99.99,,,0.01,weatherlink.com 1.10,2013-02-12 19:15:00,
2013-02-12 19:30:00,42.7,37.0,30.01,ESE,115,8.0,-999.0,80,-99.99,,,0.01,weatherlink.com 1.10,2013-02-12 19:30:00,
2013-02-12 19:45:00,42.7,37.0,30.01,ESE,115,2.0,-999.0,80,-99.99,,,0.01,weatherlink.com 1.10,2013-02-12 19:45:00,
2013-02-12 20:00:00,42.7,37.0,30.01,ESE,117,4.0,-999.0,80,-99.99,,,0.01,weatherlink.com 1.10,2013-02-12 20:00:00,
2013-02-12 20:15:00,42.7,37.0,30.02,ESE,119,5.0,-999.0,80,-99.99,,,0.01,weatherlink.com 1.10,2013-02-12 20:15:00,
2013-02-12 20:30:00,42.6,37.0,30.02,ESE,119,4.0,-999.0,80,-99.99,,,0.02,weatherlink.com 1.10,2013-02-12 20:30:00,
2013-02-12 20:45:00,42.4,37.0,30.02,ESE,119,0.0,-999.0,81,-99.99,,,0.02,weatherlink.com 1.10,2013-02-12 20:45:00,
2013-02-12 21:00:00,42.4,37.0,30.02,ESE,119,4.0,-999.0,82,-99.99,,,0.02,weatherlink.com 1.10,2013-02-12 21:00:00,
2013-02-12 21:15:00,42.5,37.0,30.02,ESE,119,3.0,-999.0,82,-99.99,,,0.02,weatherlink.com 1.10,2013-02-12 21:15:00,
2013-02-12 21:30:00,42.7,38.0,30.02,ESE,119,0.0,-999.0,82,-99.99,,,0.02,weatherlink.com 1.10,2013-02-12 21:30:00,
2013-02-12 21:45:00,42.8,38.0,30.02,ESE,120,2.0,-999.0,82,-99.99,,,0.02,weatherlink.com 1.10,2013-02-12 21:45:00,
2013-02-12 22:00:00,42.8,38.0,30.02,ESE,121,0.0,-999.0,82,-99.99,,,0.02,weatherlink.com 1.10,2013-02-12 22:00:00,
2013-02-12 22:15:00,42.8,38.0,30.02,SE,124,0.0,-999.0,82,-99.99,,,0.02,weatherlink.com 1.10,2013-02-12 22:15:00,
2013-02-12 22:30:00,42.8,38.0,30.02,SE,126,2.0,-999.0,82,-99.99,,,0.02,weatherlink.com 1.10,2013-02-12 22:30:00,
2013-02-12 22:45:00,42.8,38.0,30.02,SE,132,4.0,-999.0,82,-99.99,,,0.02,weatherlink.com 1.10,2013-02-12 22:45:00,
2013-02-12 23:00:00,42.6,38.0,30.02,SE,135,4.0,-999.0,82,-99.99,,,0.02,weatherlink.com 1.10,2013-02-12 23:00:00,
2013-02-12 23:15:00,42.6,38.0,30.02,SE,133,3.0,-999.0,82,-99.99,,,0.02,weatherlink.com 1.10,2013-02-12 23:15:00,
2013-02-12 23:30:00,42.7,38.0,30.01,SE,140,4.0,-999.0,82,-99.99,,,0.02,weatherlink.com 1.10,2013-02-12 23:30:00,
2013-02-12 23:45:00,42.9,38.0,30.02,SE,145,3.0,-999.0,82,-99.99,,,0.02,weatherlink.com 1.10,2013-02-12 23:45:00,